Location: *
(50.3194°N, 7.1067°E)
Time: 14:02:52
(UTC+00:00)

RESURS DK-1 - Pass Details

Date: 22 September 2019
Orbit: 557 x 561 km, 69.9° (Epoch: 15 October)

Event Time Altitude Azimuth Distance (km) Brightness Sun altitude
Rises 19:20:39 0° 331° (NNW) 2,759 6.8 -17.9°
Reaches altitude 10° 19:22:54 10° 335° (NNW) 1,858 5.7 -18.3°
Maximum altitude 19:26:59 57° 55° (NE) 663 2.5 -18.9°
Enters shadow 19:27:47 47° 100° (E) 743 2.5 -19.0°
